Other Public Products
Issued by NWS Charleston, SC

Home | Current Version | Previous Version | Text Only | Print | Product List | Glossary On
Versions: 1 2 3 4 5 6 7 8 9 10 11 12 13 14 15 16 17 18 19 20 21 22 23 24 25 26 27 28 29 30 31 32 33 34 35 36 37 38 39 40 41 42 43 44 45 46 47 48 49 50
000
FPUS82 KCHS 072327
OPUCHS

TEST...KCHS/KSAV Gateway Observations...TEST
National Weather Service Charleston SC
600 PM EST WED DEC 07 2016

NOTE: "fair" indicates few or no clouds below 12,000 feet with no
significant weather and/or obstructions to visibility.

SCZ050-WAZ558-NCZ071-TXZ119-213-PAZ071-DCZ001-FLZ074-172-MI076-
NYZ176-178-MAZ016-IL014-TNZ027-NJZ106-GAZ044-MD014-080000-
...Gateway Observations for Charleston International...

CITY           SKY/WX    TMP DP  RH WIND       PRES   REMARKS
Chas Airport   PTCLDY    55  50  83 W6        30.07R
Seattle        PTCLDY    38  19  46 E14       30.37F WCI  30
Charlotte      MOCLDY    51  43  74 CALM      30.05S
Dallas DFW     CLOUDY    50  38  63 N12       30.12R
Dallas Love    CLOUDY    52  41  66 N7        30.12R
Philladelphia  PTCLDY    45  34  65 W7        30.06R
Wash National  MOCLDY    48  30  49 CALM      30.08R
Baltimore      PTCLDY    40  32  73 CALM      30.07R
Miami          MOCLDY    80  73  79 SE5       30.04R
Detroit        CLOUDY    33  24  69 SW15      30.05R WCI  23
Newark         CLOUDY    46  36  68 N6        30.03R
Laguardia      CLOUDY    47  35  63 N8        30.03R
J F K          MOCLDY    47  37  68 N7        30.04R
Boston Logan   CLOUDY    41  39  93 CALM      30.01R
Ft. Lauderdale PTCLDY    78  72  81 E5        30.03R
Chicago O`Hare CLOUDY    24  17  74 W18G24    30.11R WCI  10
Chicago Midway CLOUDY    27  17  66 W18G28    30.13R WCI  14
Houston Bush   CLOUDY    57  52  83 NE8       30.05S
Houston Hobby  CLOUDY    59  55  87 NE8       30.04S
Nashville      MOCLDY    44  30  57 N7        30.16R
Atlanta        PTCLDY    54  45  71 SW7       30.06R

$$

GAZ044-118-TXZ119-213-NCZ071-DCZ001-MDZ014-506-PAZ021-071-NJZ106-
NYZ176-178-MAZ106-OHZ011-021-055-MIZ076-KYZ091-ILZ014-INZ047-
MNZ060-080000-
...Gateway Observations for Savannah International...

CITY           SKY/WX    TMP DP  RH WIND       PRES   REMARKS
Savannah Arpt  PTCLDY    58  54  86 SE5       30.06R
Atlanta        PTCLDY    54  45  71 SW7       30.06R
Charlotte      MOCLDY    51  43  74 CALM      30.05S
Dallas DFW     CLOUDY    50  38  63 N12       30.12R
Houston Bush   CLOUDY    57  52  83 NE8       30.05S
Wash National  MOCLDY    48  30  49 CALM      30.08R
Wash Dulles    PTCLDY    39  33  79 S3        30.07R
Baltimore      PTCLDY    40  32  73 CALM      30.07R
Philadelphia   PTCLDY    45  34  65 W7        30.06R
Newark         CLOUDY    46  36  68 N6        30.03R
Laguardia      CLOUDY    47  35  63 N8        30.03R
J F K          MOCLDY    47  37  68 N7        30.04R
Boston         CLOUDY    41  39  93 CALM      30.01R
Pittsburg      CLOUDY    38  22  52 SW5       30.06S WCI  34
Akron          CLOUDY    35  20  54 SW8       30.06S WCI  29
Cleveland      MOCLDY    35  21  56 SW7       30.09R WCI  29
Cincinnati     CLOUDY    35  23  61 SW3       30.14R
Columbus         N/A     34  26  72 SW3       30.11S
Detroit        CLOUDY    33  24  69 SW15      30.05R WCI  23
Chicago O`Hare CLOUDY    24  17  74 W18G24    30.11R WCI  10
Minneapolis    FLURRIES  19   9  65 W21G26    30.09R WCI   3
Indianapolis   CLOUDY    34  21  59 W10       30.15R WCI  26

$$




USA.gov is the U.S. government's official web portal to all federal, state and local government web resources and services.